Time,TemperatureF,DewpointF,PressureIn,WindDirection,WindDirectionDegrees,WindSpeedMPH,WindSpeedGustMPH,Humidity,HourlyPrecipIn,Conditions,Clouds,dailyrainin,SoftwareType,DateUTC
2013-02-28 00:02:00,31.0,-99.9,-100.00,WSW,240,11.0,13.0,-999,0.00,,,-99.99,,2013-02-28 05:02:00,
2013-02-28 00:12:00,31.0,-99.9,-100.00,WSW,240,7.0,12.0,-999,0.00,,,-99.99,,2013-02-28 05:12:00,
2013-02-28 00:22:00,31.0,-99.9,-100.00,WSW,250,9.0,14.0,-999,0.00,,,-99.99,,2013-02-28 05:22:00,
2013-02-28 00:32:00,31.0,-99.9,-100.00,WSW,250,7.0,12.0,-999,0.00,,,-99.99,,2013-02-28 05:32:00,
2013-02-28 00:43:00,31.0,-99.9,-100.00,WSW,255,10.0,12.0,-999,0.00,,,-99.99,,2013-02-28 05:43:00,
2013-02-28 00:52:00,31.0,-99.9,-100.00,WSW,250,9.0,12.0,-999,0.00,,,-99.99,,2013-02-28 05:52:00,
2013-02-28 01:02:00,31.0,-99.9,-100.00,WSW,255,9.0,13.0,-999,0.00,,,-99.99,,2013-02-28 06:02:00,
2013-02-28 01:11:00,31.0,-99.9,-100.00,West,260,7.0,12.0,-999,0.00,,,-99.99,,2013-02-28 06:11:00,
2013-02-28 01:22:00,31.0,-99.9,-100.00,WSW,250,9.0,12.0,-999,0.00,,,-99.99,,2013-02-28 06:22:00,
2013-02-28 01:32:00,31.0,-99.9,-100.00,WSW,255,9.0,11.0,-999,0.00,,,-99.99,,2013-02-28 06:32:00,
2013-02-28 01:42:00,31.0,-99.9,-100.00,WSW,245,8.0,12.0,-999,0.00,,,-99.99,,2013-02-28 06:42:00,
2013-02-28 01:52:00,31.0,-99.9,-100.00,WSW,255,7.0,10.0,-999,0.55,,,-99.99,,2013-02-28 06:52:00,
2013-02-28 02:01:00,31.0,-99.9,-100.00,WSW,250,9.0,12.0,-999,0.00,,,-99.99,,2013-02-28 07:01:00,
2013-02-28 02:11:00,31.0,-99.9,-100.00,WSW,250,9.0,12.0,-999,0.00,,,-99.99,,2013-02-28 07:11:00,
2013-02-28 02:22:00,31.0,-99.9,-100.00,WSW,250,9.0,12.0,-999,0.00,,,-99.99,,2013-02-28 07:22:00,
2013-02-28 02:32:00,31.0,-99.9,-100.00,WSW,250,9.0,12.0,-999,0.00,,,-99.99,,2013-02-28 07:32:00,
2013-02-28 02:42:00,31.0,-99.9,-100.00,WSW,250,9.0,12.0,-999,0.00,,,-99.99,,2013-02-28 07:42:00,
2013-02-28 03:12:00,31.0,-99.9,-100.00,West,270,7.0,9.0,-999,0.00,,,-99.99,,2013-02-28 08:12:00,
2013-02-28 03:22:00,31.0,-99.9,-100.00,West,270,7.0,9.0,-999,0.00,,,-99.99,,2013-02-28 08:22:00,
2013-02-28 03:32:00,31.0,-99.9,-100.00,West,280,9.0,11.0,-999,0.00,,,-99.99,,2013-02-28 08:32:00,
2013-02-28 03:42:00,31.0,-99.9,-100.00,West,280,8.0,11.0,-999,0.00,,,-99.99,,2013-02-28 08:42:00,
2013-02-28 03:53:00,31.0,-99.9,-100.00,WNW,290,7.0,9.0,-999,0.00,,,-99.99,,2013-02-28 08:53:00,
2013-02-28 04:04:00,32.0,-99.9,-100.00,WNW,290,7.0,9.0,-999,0.00,,,-99.99,,2013-02-28 09:04:00,
2013-02-28 04:12:00,32.0,-99.9,-100.00,WNW,290,6.0,8.0,-999,0.00,,,-99.99,,2013-02-28 09:12:00,
2013-02-28 04:22:00,32.0,-99.9,-100.00,WNW,290,8.0,9.0,-999,0.00,,,-99.99,,2013-02-28 09:22:00,
2013-02-28 04:32:00,32.0,-99.9,-100.00,WNW,295,6.0,9.0,-999,0.00,,,-99.99,,2013-02-28 09:32:00,
2013-02-28 04:42:00,32.0,-99.9,-100.00,WNW,295,6.0,8.0,-999,0.00,,,-99.99,,2013-02-28 09:42:00,
2013-02-28 04:53:00,32.0,-99.9,-100.00,WNW,295,6.0,9.0,-999,0.00,,,-99.99,,2013-02-28 09:53:00,
2013-02-28 05:02:00,32.0,-99.9,-100.00,WNW,300,7.0,9.0,-999,0.00,,,-99.99,,2013-02-28 10:02:00,
2013-02-28 05:12:00,32.0,-99.9,-100.00,NW,310,6.0,9.0,-999,0.00,,,-99.99,,2013-02-28 10:12:00,
2013-02-28 05:22:00,32.0,-99.9,-100.00,NW,305,7.0,9.0,-999,0.00,,,-99.99,,2013-02-28 10:22:00,
2013-02-28 05:32:00,32.0,-99.9,-100.00,WNW,300,7.0,10.0,-999,0.00,,,-99.99,,2013-02-28 10:32:00,
2013-02-28 05:42:00,32.0,-99.9,-100.00,NW,305,7.0,9.0,-999,0.00,,,-99.99,,2013-02-28 10:42:00,
2013-02-28 05:52:00,32.0,-99.9,-100.00,NW,310,6.0,10.0,-999,0.00,,,-99.99,,2013-02-28 10:52:00,
2013-02-28 06:02:00,32.0,-99.9,-100.00,NW,310,9.0,11.0,-999,0.00,,,-99.99,,2013-02-28 11:02:00,
2013-02-28 06:12:00,32.0,-99.9,-100.00,NW,310,9.0,11.0,-999,0.00,,,-99.99,,2013-02-28 11:12:00,
2013-02-28 06:22:00,32.0,-99.9,-100.00,NW,305,7.0,10.0,-999,0.00,,,-99.99,,2013-02-28 11:22:00,
2013-02-28 06:32:00,32.0,-99.9,-100.00,NW,315,9.0,11.0,-999,0.00,,,-99.99,,2013-02-28 11:32:00,
2013-02-28 06:42:00,32.0,-99.9,-100.00,NW,320,9.0,12.0,-999,0.00,,,-99.99,,2013-02-28 11:42:00,
2013-02-28 06:53:00,32.0,-99.9,-100.00,NNW,335,9.0,12.0,-999,0.00,,,-99.99,,2013-02-28 11:53:00,
2013-02-28 07:02:00,32.0,-99.9,-100.00,NNW,330,9.0,12.0,-999,0.00,,,-99.99,,2013-02-28 12:02:00,
2013-02-28 07:12:00,32.0,-99.9,-100.00,NNW,330,12.0,17.0,-999,0.00,,,-99.99,,2013-02-28 12:12:00,
2013-02-28 07:22:00,32.0,-99.9,-100.00,NW,310,9.0,14.0,-999,0.00,,,-99.99,,2013-02-28 12:22:00,
2013-02-28 07:32:00,32.0,-99.9,-100.00,NW,315,7.0,12.0,-999,0.00,,,-99.99,,2013-02-28 12:32:00,
2013-02-28 07:43:00,32.0,-99.9,-100.00,NW,325,8.0,13.0,-999,0.00,,,-99.99,,2013-02-28 12:43:00,
2013-02-28 07:53:00,32.0,-99.9,-100.00,NW,315,7.0,11.0,-999,0.00,,,-99.99,,2013-02-28 12:53:00,
2013-02-28 08:02:00,32.0,-99.9,-100.00,NW,320,10.0,12.0,-999,0.00,,,-99.99,,2013-02-28 13:02:00,
2013-02-28 08:12:00,33.0,-99.9,-100.00,NW,325,7.0,12.0,-999,0.00,,,-99.99,,2013-02-28 13:12:00,
2013-02-28 08:22:00,33.0,-99.9,-100.00,NW,320,9.0,11.0,-999,0.00,,,-99.99,,2013-02-28 13:22:00,
2013-02-28 08:32:00,33.0,-99.9,-100.00,NNW,330,9.0,13.0,-999,0.00,,,-99.99,,2013-02-28 13:32:00,
2013-02-28 08:42:00,33.0,-99.9,-100.00,NNW,330,10.0,13.0,-999,0.00,,,-99.99,,2013-02-28 13:42:00,
2013-02-28 08:52:00,33.0,-99.9,-100.00,NNW,335,9.0,13.0,-999,0.00,,,-99.99,,2013-02-28 13:52:00,
2013-02-28 09:02:00,33.0,-99.9,-100.00,NNW,335,9.0,16.0,-999,0.00,,,-99.99,,2013-02-28 14:02:00,
2013-02-28 09:12:00,33.0,-99.9,-100.00,NNW,330,9.0,14.0,-999,0.00,,,-99.99,,2013-02-28 14:12:00,
2013-02-28 09:22:00,33.0,-99.9,-100.00,NNW,330,10.0,12.0,-999,0.00,,,-99.99,,2013-02-28 14:22:00,
2013-02-28 09:32:00,33.0,-99.9,-100.00,NNW,330,10.0,16.0,-999,0.00,,,-99.99,,2013-02-28 14:32:00,
2013-02-28 09:42:00,33.0,-99.9,-100.00,NNW,340,10.0,16.0,-999,0.00,,,-99.99,,2013-02-28 14:42:00,
2013-02-28 09:52:00,34.0,-99.9,-100.00,NNW,335,10.0,12.0,-999,0.00,,,-99.99,,2013-02-28 14:52:00,
2013-02-28 10:02:00,34.0,-99.9,-100.00,NNW,335,11.0,14.0,-999,0.00,,,-99.99,,2013-02-28 15:02:00,
2013-02-28 10:11:00,34.0,-99.9,-100.00,NNW,335,11.0,12.0,-999,0.00,,,-99.99,,2013-02-28 15:11:00,
2013-02-28 10:22:00,35.0,-99.9,-100.00,NNW,335,8.0,12.0,-999,0.00,,,-99.99,,2013-02-28 15:22:00,
2013-02-28 10:32:00,34.0,-99.9,-100.00,NNW,330,11.0,18.0,-999,0.00,,,-99.99,,2013-02-28 15:32:00,
2013-02-28 10:42:00,35.0,-99.9,-100.00,NNW,335,11.0,15.0,-999,0.00,,,-99.99,,2013-02-28 15:42:00,
2013-02-28 10:53:00,35.0,-99.9,-100.00,NNW,335,13.0,17.0,-999,0.00,,,-99.99,,2013-02-28 15:53:00,
2013-02-28 11:02:00,35.0,-99.9,-100.00,NNW,345,12.0,17.0,-999,0.00,,,-99.99,,2013-02-28 16:02:00,
2013-02-28 11:12:00,35.0,-99.9,-100.00,NNW,340,10.0,17.0,-999,0.00,,,-99.99,,2013-02-28 16:12:00,
2013-02-28 11:22:00,35.0,-99.9,-100.00,NNW,340,13.0,16.0,-999,0.00,,,-99.99,,2013-02-28 16:22:00,
2013-02-28 11:32:00,35.0,-99.9,-100.00,NNW,340,12.0,17.0,-999,0.00,,,-99.99,,2013-02-28 16:32:00,
2013-02-28 11:43:00,35.0,-99.9,-100.00,NNW,340,12.0,16.0,-999,0.00,,,-99.99,,2013-02-28 16:43:00,
2013-02-28 11:52:00,35.0,33.0,-100.00,NNW,340,9.0,17.0,93,0.00,,,-99.99,,2013-02-28 16:52:00,
2013-02-28 12:02:00,35.0,32.0,-100.00,NNW,335,11.0,16.0,90,0.00,,,-99.99,,2013-02-28 17:02:00,
2013-02-28 12:12:00,35.0,33.0,-100.00,NNW,340,10.0,14.0,91,0.00,,,-99.99,,2013-02-28 17:12:00,
2013-02-28 12:22:00,35.0,32.0,-100.00,NNW,345,12.0,16.0,89,0.00,,,-99.99,,2013-02-28 17:22:00,
2013-02-28 12:32:00,35.0,32.0,-100.00,NNW,345,12.0,16.0,89,0.00,,,-99.99,,2013-02-28 17:32:00,
2013-02-28 12:42:00,35.0,32.0,-100.00,NNW,330,9.0,14.0,87,0.00,,,-99.99,,2013-02-28 17:42:00,
2013-02-28 12:52:00,35.0,31.0,-100.00,NNW,330,12.0,16.0,85,0.00,,,-99.99,,2013-02-28 17:52:00,
2013-02-28 13:02:00,35.0,31.0,-100.00,NNW,340,11.0,15.0,84,0.00,,,-99.99,,2013-02-28 18:02:00,
2013-02-28 13:12:00,35.0,31.0,-100.00,NNW,335,8.0,12.0,85,0.00,,,-99.99,,2013-02-28 18:12:00,
2013-02-28 13:22:00,35.0,31.0,-100.00,NNW,345,11.0,15.0,86,0.00,,,-99.99,,2013-02-28 18:22:00,
2013-02-28 13:32:00,35.0,31.0,-100.00,NNW,340,11.0,16.0,83,0.00,,,-99.99,,2013-02-28 18:32:00,
2013-02-28 13:42:00,36.0,31.0,-100.00,NNW,340,10.0,13.0,83,0.00,,,-99.99,,2013-02-28 18:42:00,
2013-02-28 13:52:00,36.0,31.0,-100.00,NNW,345,11.0,14.0,82,0.00,,,-99.99,,2013-02-28 18:52:00,
2013-02-28 14:02:00,36.0,31.0,-100.00,NNW,335,8.0,14.0,82,0.00,,,-99.99,,2013-02-28 19:02:00,
2013-02-28 14:11:00,36.0,31.0,-100.00,NNW,330,11.0,14.0,81,0.00,,,-99.99,,2013-02-28 19:11:00,
2013-02-28 14:22:00,36.0,31.0,-100.00,NNW,335,12.0,15.0,81,0.00,,,-99.99,,2013-02-28 19:22:00,
2013-02-28 14:32:00,36.0,31.0,-100.00,NW,325,12.0,16.0,82,0.00,,,-99.99,,2013-02-28 19:32:00,
2013-02-28 14:42:00,36.0,31.0,-100.00,NNW,345,8.0,12.0,83,0.00,,,-99.99,,2013-02-28 19:42:00,
2013-02-28 14:51:00,36.0,31.0,-100.00,NNW,340,8.0,12.0,81,0.00,,,-99.99,,2013-02-28 19:51:00,
2013-02-28 15:01:00,36.0,31.0,-100.00,NNW,330,7.0,9.0,82,0.00,,,-99.99,,2013-02-28 20:01:00,
2013-02-28 15:12:00,36.0,31.0,-100.00,NNW,330,7.0,10.0,80,0.00,,,-99.99,,2013-02-28 20:12:00,
2013-02-28 15:22:00,36.0,30.0,-100.00,NNW,345,9.0,12.0,79,0.00,,,-99.99,,2013-02-28 20:22:00,
2013-02-28 15:32:00,36.0,30.0,-100.00,NW,320,9.0,14.0,78,0.00,,,-99.99,,2013-02-28 20:32:00,
2013-02-28 15:42:00,36.0,30.0,-100.00,NNW,330,9.0,12.0,79,0.00,,,-99.99,,2013-02-28 20:42:00,
2013-02-28 15:52:00,36.0,30.0,-100.00,NNW,345,10.0,12.0,79,0.00,,,-99.99,,2013-02-28 20:52:00,
2013-02-28 16:02:00,36.0,30.0,-100.00,NNW,335,6.0,9.0,78,0.00,,,-99.99,,2013-02-28 21:02:00,
2013-02-28 16:11:00,35.0,30.0,-100.00,NNW,345,7.0,9.0,81,0.00,,,-99.99,,2013-02-28 21:11:00,
2013-02-28 16:22:00,36.0,30.0,-100.00,NNW,330,9.0,12.0,79,0.00,,,-99.99,,2013-02-28 21:22:00,
2013-02-28 16:32:00,35.0,30.0,-100.00,NNW,345,10.0,15.0,79,0.00,,,-99.99,,2013-02-28 21:32:00,
2013-02-28 16:42:00,35.0,31.0,-100.00,NNW,340,6.0,9.0,83,0.00,,,-99.99,,2013-02-28 21:42:00,
2013-02-28 16:52:00,35.0,31.0,-100.00,NNW,330,4.0,7.0,83,0.00,,,-99.99,,2013-02-28 21:52:00,
2013-02-28 17:01:00,35.0,31.0,-100.00,NNW,330,4.0,6.0,84,0.00,,,-99.99,,2013-02-28 22:01:00,
2013-02-28 17:11:00,35.0,31.0,-100.00,NW,320,7.0,9.0,84,0.00,,,-99.99,,2013-02-28 22:11:00,
2013-02-28 17:22:00,35.0,31.0,-100.00,NW,315,9.0,11.0,86,0.00,,,-99.99,,2013-02-28 22:22:00,
2013-02-28 17:32:00,35.0,31.0,-100.00,NW,325,9.0,12.0,88,0.00,,,-99.99,,2013-02-28 22:32:00,
2013-02-28 17:42:00,35.0,32.0,-100.00,NW,310,6.0,12.0,89,0.00,,,-99.99,,2013-02-28 22:42:00,
2013-02-28 17:52:00,35.0,31.0,-100.00,NW,320,6.0,9.0,88,0.00,,,-99.99,,2013-02-28 22:52:00,
2013-02-28 18:01:00,35.0,32.0,-100.00,NW,320,6.0,8.0,88,0.00,,,-99.99,,2013-02-28 23:01:00,
2013-02-28 18:11:00,35.0,32.0,-100.00,NW,310,6.0,7.0,90,0.00,,,-99.99,,2013-02-28 23:11:00,
2013-02-28 18:22:00,34.0,32.0,-100.00,NNW,340,3.0,6.0,89,0.00,,,-99.99,,2013-02-28 23:22:00,
2013-02-28 18:32:00,34.0,32.0,-100.00,NW,315,1.0,3.0,92,0.00,,,-99.99,,2013-02-28 23:32:00,
2013-02-28 18:42:00,35.0,32.0,-100.00,NW,305,4.0,5.0,89,0.00,,,-99.99,,2013-02-28 23:42:00,
2013-02-28 18:52:00,35.0,31.0,-100.00,NW,310,4.0,7.0,87,0.00,,,-99.99,,2013-02-28 23:52:00,
2013-02-28 19:02:00,35.0,31.0,-100.00,NW,315,6.0,9.0,86,0.00,,,-99.99,,2013-03-01 00:02:00,
2013-02-28 19:11:00,34.0,31.0,-100.00,NNW,335,7.0,9.0,88,0.00,,,-99.99,,2013-03-01 00:11:00,
2013-02-28 19:22:00,34.0,32.0,-100.00,North,355,7.0,11.0,93,0.00,,,-99.99,,2013-03-01 00:22:00,
2013-02-28 19:32:00,33.0,32.0,-100.00,North,0,6.0,10.0,95,0.00,,,-99.99,,2013-03-01 00:32:00,
2013-02-28 19:42:00,33.0,32.0,-100.00,North,0,4.0,9.0,94,0.00,,,-99.99,,2013-03-01 00:42:00,
2013-02-28 19:51:00,33.0,32.0,-100.00,North,350,4.0,6.0,96,0.00,,,-99.99,,2013-03-01 00:51:00,
2013-02-28 20:01:00,33.0,32.0,-100.00,NNW,340,4.0,6.0,95,0.00,,,-99.99,,2013-03-01 01:01:00,
2013-02-28 20:11:00,33.0,32.0,-100.00,NNW,335,3.0,6.0,93,0.00,,,-99.99,,2013-03-01 01:11:00,
2013-02-28 20:21:00,33.0,31.0,-100.00,NNW,330,4.0,6.0,91,0.00,,,-99.99,,2013-03-01 01:21:00,
2013-02-28 20:32:00,33.0,31.0,-100.00,NNW,330,4.0,6.0,91,0.00,,,-99.99,,2013-03-01 01:32:00,
2013-02-28 20:42:00,33.0,31.0,-100.00,NNW,330,4.0,6.0,91,0.00,,,-99.99,,2013-03-01 01:42:00,
2013-02-28 20:51:00,33.0,31.0,-100.00,NNW,345,4.0,6.0,91,0.00,,,-99.99,,2013-03-01 01:51:00,
2013-02-28 21:01:00,33.0,31.0,-100.00,NNW,345,4.0,6.0,92,0.00,,,-99.99,,2013-03-01 02:01:00,
2013-02-28 21:11:00,33.0,31.0,-100.00,NNW,335,6.0,7.0,91,0.00,,,-99.99,,2013-03-01 02:11:00,
2013-02-28 21:21:00,33.0,31.0,-100.00,NNW,330,4.0,7.0,91,0.00,,,-99.99,,2013-03-01 02:21:00,
2013-02-28 21:32:00,33.0,31.0,-100.00,NNW,330,4.0,6.0,93,0.00,,,-99.99,,2013-03-01 02:32:00,
2013-02-28 21:42:00,33.0,-99.9,-100.00,NNW,340,4.0,6.0,-999,0.00,,,-99.99,,2013-03-01 02:42:00,
2013-02-28 21:52:00,33.0,-99.9,-100.00,NNW,340,4.0,6.0,-999,0.00,,,-99.99,,2013-03-01 02:52:00,
2013-02-28 22:02:00,32.0,-99.9,-100.00,NNW,345,4.0,7.0,-999,0.00,,,-99.99,,2013-03-01 03:02:00,
2013-02-28 22:12:00,32.0,-99.9,-100.00,North,350,5.0,7.0,-999,0.00,,,-99.99,,2013-03-01 03:12:00,
2013-02-28 22:22:00,32.0,-99.9,-100.00,NNW,335,4.0,6.0,-999,0.00,,,-99.99,,2013-03-01 03:22:00,
2013-02-28 22:32:00,32.0,-99.9,-100.00,NNW,340,5.0,7.0,-999,0.00,,,-99.99,,2013-03-01 03:32:00,
2013-02-28 22:42:00,32.0,-99.9,-100.00,NNW,335,5.0,7.0,-999,0.00,,,-99.99,,2013-03-01 03:42:00,
2013-02-28 22:52:00,32.0,-99.9,-100.00,North,355,5.0,7.0,-999,0.00,,,-99.99,,2013-03-01 03:52:00,
2013-02-28 23:02:00,32.0,-99.9,-100.00,North,0,4.0,6.0,-999,0.00,,,-99.99,,2013-03-01 04:02:00,
2013-02-28 23:12:00,32.0,-99.9,-100.00,North,355,4.0,6.0,-999,0.00,,,-99.99,,2013-03-01 04:12:00,
2013-02-28 23:22:00,32.0,-99.9,-100.00,NNW,345,4.0,6.0,-999,0.00,,,-99.99,,2013-03-01 04:22:00,
2013-02-28 23:32:00,32.0,-99.9,-100.00,NNW,345,6.0,7.0,-999,0.00,,,-99.99,,2013-03-01 04:32:00,
2013-02-28 23:42:00,32.0,-99.9,-100.00,NNW,345,6.0,7.0,-999,0.00,,,-99.99,,2013-03-01 04:42:00,
2013-02-28 23:52:00,32.0,-99.9,-100.00,North,350,4.0,7.0,-999,0.00,,,-99.99,,2013-03-01 04:52:00,